SPJ weather

Sparti Airport
Sparti, Laconia, Greece

Public forecast

Using degrees Celsius for public forecast. Weather courtesy of forecast.io.

METAR (pilot weather report)

Closest report is Kalamata Airport, 24.7 nm (45.7 km) WNW. Retrieved 2018/12/13 06:20 UTC (19 minutes ago):

LGKL 130620Z 00000KT 4000 -RA BR FEW020 BKN030 BKN080 08/06 Q1017

TAF (pilot weather forecast)

Forecast is more than 12 hours old.

Closest forecast is Kalamata Airport, 24.7 nm (45.7 km) WNW. Retrieved 2017/11/06 03:12 UTC (1 year ago):

TAF COR LGKL 060303Z 0603/0615 VRB03KT 9999 SCT030 BKN080 PROB40 TEMPO 0605/0608 5000 BR PROB30 TEMPO 0605/0609 5000 RA SCT020 BKN025 BKN070